Location: Bachant
(50.2154°N, 3.8683°E)
Time: 22:49:05
(UTC+00:00)

Daily predictions for brighter satellites

Satellite Brightness Start Highest point End
(mag) Time Altitude Azimuth Time Altitude Azimuth Time Altitude Azimuth
CENTAUR R/B 2.7 16:11:12 10° SW 16:16:54 80° NW 16:24:12 10° NE
Cosmos 1455 Rocket 3.3 16:17:27 10° SSW 16:21:46 74° W 16:26:09 10° N
Cosmos 1602 Rocket 4.3 16:18:47 10° N 16:22:42 30° ENE 16:26:33 10° SE
Cosmos 2279 Rocket 4.2 16:18:17 10° SSE 16:24:13 50° E 16:30:12 10° NNE
Cosmos 1570 Rocket 4.0 16:20:42 10° NNW 16:26:05 82° ENE 16:31:24 10° SSE
Cosmos 1092 Rocket 4.2 16:20:40 10° NNW 16:26:51 81° W 16:32:58 10° S
Cosmos 836 Rocket 4.5 16:24:06 10° NNW 16:29:22 79° ENE 16:34:38 10° SSE
SMAP 3.3 16:26:29 10° SE 16:30:55 46° ENE 16:35:24 10° N
Cosmos 1656 4.0 16:26:13 10° S 16:31:37 50° ESE 16:37:06 10° NE
UNK 4.4 16:28:30 10° NNE 16:32:44 36° E 16:36:56 10° SSE
YAOGAN 1 4.2 16:32:56 10° E 16:35:06 14° ENE 16:37:17 10° NNE
NOSS 2-2 (C) 2.7 16:31:56 10° SW 16:35:09 79° NW 16:38:06 10° NE
Cosmos 1867 3.9 16:30:03 10° NNW 16:35:18 46° NE 16:40:32 10° ESE
Cosmos 2228 2.9 16:31:09 10° S 16:35:23 82° E 16:39:40 10° NNE
Landsat 7 4.1 16:32:05 10° SE 16:36:25 41° ENE 16:40:48 10° N
SAR-Lupe-4 4.3 16:33:33 10° SE 16:36:43 31° ENE 16:39:54 10° N
Cosmos 1486 Rocket 4.5 16:31:56 10° S 16:36:47 41° ESE 16:41:41 10° NE
Cosmos 2297 Rocket 2.2 16:33:50 10° NNW 16:39:31 68° ENE 16:45:09 10° SE
USA 290 2.5 16:36:31 10° NNW 16:39:41 46° ENE 16:42:50 10° SE
USA 215 3.7 16:35:35 10° ENE 16:41:52 50° N 16:48:09 10° WNW
Cosmos 773 Rocket 4.0 16:37:40 10° NNW 16:42:54 82° ENE 16:48:09 10° SSE
Cosmos 1782 2.6 16:42:18 10° S 16:45:49 56° E 16:49:22 10° NNE
ATLAS CENTAUR R/B 0.9 16:43:15 10° NW 16:46:30 72° SW 16:49:39 10° SSE
CZ-4C R/B 2.9 16:40:36 10° NW 16:47:14 69° NE 16:55:38 10° SE
Cosmos 1607 3.9 16:42:23 10° NW 16:48:39 78° NE 16:54:57 10° SE
Cosmos 1733 0.9 16:47:57 10° N 16:49:33 83° WSW 16:51:08 10° S
CZ-2D R/B 3.1 16:49:16 10° SE 16:52:13 39° ENE 16:55:12 10° N
Lacrosse 4 Rocket 2.8 16:51:23 10° WSW 16:55:02 31° NW 16:58:39 10° NNE
IRS-P3 4.3 16:50:14 10° SE 16:55:17 46° ENE 17:00:22 10° N
Meteor 1-25 Rocket 4.5 16:49:42 10° N 16:55:21 48° ENE 17:00:55 10° SE
Cosmos 2219 4.3 16:51:17 10° NNW 16:55:54 24° NE 16:59:37 14° E
Cosmos 1825 Rocket 4.2 16:52:32 10° N 16:56:31 33° ENE 17:00:25 10° SE
ARIANE 5 R/B 2.5 16:51:59 10° SSE 16:56:58 64° ENE 17:02:04 10° N
Cosmos 1758 Rocket 3.6 16:54:31 10° NNW 16:58:52 82° W 17:03:08 10° S
Cosmos 2266 Rocket 4.0 16:52:51 10° N 16:58:58 60° ENE 17:04:57 10° SSE
Cosmos 1315 Rocket 4.0 16:55:20 10° SW 16:58:58 41° WNW 17:02:39 10° N
Cosmos 2098 Rocket 3.0 16:58:10 10° S 17:02:14 73° E 17:07:04 10° NNE
Cosmos 2208 Rocket 4.3 16:57:25 10° NNW 17:02:34 71° WSW 17:07:43 10° SSE
Cosmos 2151 2.8 17:00:04 10° N 17:04:14 70° E 17:08:22 10° SSE
Cosmos 1743 2.2 17:01:39 10° N 17:04:55 89° W 17:08:09 10° S
SPOT 1/Viking Rocket 3.9 17:02:11 10° SE 17:07:00 40° ENE 17:11:51 10° N
Cosmos 1980 Rocket 3.6 17:03:34 10° SE 17:07:06 17° E 17:08:01 16° E
Cosmos 1844 Rocket 4.3 17:06:56 10° N 17:10:02 15° NNE 17:10:59 14° NE
SL-16 R/B 3.0 17:09:29 10° NNE 17:15:39 63° WNW 17:21:45 10° SW
Cosmos 2263 Rocket 2.6 17:12:27 10° NNW 17:17:47 40° NE 17:23:07 10° ESE
NOSS 3-2 (C) 3.2 17:14:11 10° SSW 17:19:07 58° SE 17:23:01 21° NE
NOSS 3-2 (A) 3.4 17:14:04 10° SW 17:19:11 70° NW 17:24:05 17° NE
Cosmos 783 Rocket 4.5 17:18:22 10° NNW 17:23:42 85° ENE 17:29:00 10° SSE
CZ-4 R/B 4.5 17:19:58 10° SE 17:23:47 48° ENE 17:27:36 10° N
GEOS 3 Rocket 3.7 17:19:36 17° NE 17:23:54 83° NW 17:29:16 10° SW
MOS 1 Rocket 3.4 17:19:19 10° SSE 17:24:12 78° ENE 17:29:23 10° N
BREEZE M DEB (TANK) 2.8 17:23:08 10° SW 17:25:11 27° SSE 17:25:20 27° SSE
Cosmos 1076 Rocket 3.8 17:21:50 10° N 17:25:56 41° ENE 17:30:00 10° SE
AQUARIUS 4.0 17:22:47 10° SSE 17:27:12 88° ENE 17:31:38 10° NNW
Cosmos 1933 3.2 17:24:36 10° S 17:28:22 58° E 17:30:45 21° NNE
SJ-12 3.9 17:26:21 10° S 17:30:06 71° WSW 17:33:54 10° NNW
Cosmos 2084 Rocket 3.6 17:26:18 10° NW 17:30:32 71° SW 17:34:42 10° SE
Cosmos 2227 Rocket 2.1 17:25:03 10° NNW 17:30:43 74° ENE 17:36:22 10° SE
Cosmos 1538 Rocket 4.3 17:26:38 10° NNW 17:31:41 44° ENE 17:36:28 11° SE
Cosmos 1606 Rocket 3.5 17:27:32 10° S 17:31:51 60° E 17:35:23 15° NNE
BlueWalker 3 4.4 17:29:17 10° W 17:32:00 20° SW 17:34:42 10° S
Cosmos 2360 4.3 17:26:56 10° SSW 17:32:40 82° WNW 17:37:26 16° NNE
Cosmos 1900 4.4 17:28:07 10° NW 17:33:12 80° SW 17:38:09 10° SSE
Cosmos 2369 Rocket 4.4 17:32:19 10° WNW 17:35:50 16° NNW 17:39:22 10° N
PSLV R/B 3.8 17:36:04 34° E 17:36:55 38° ENE 17:40:42 10° N
CZ-2D R/B 3.5 17:33:33 10° SSE 17:37:39 54° ENE 17:41:44 10° N
COSMO-SKYMED 1 3.3 17:39:14 30° ESE 17:39:14 30° ESE 17:42:15 10° SSE
NOSS 2-2 (D) 3.8 17:36:06 10° WSW 17:39:06 37° NW 17:40:03 29° N
SL-19 R/B 4.3 17:36:14 10° SE 17:41:26 52° ENE 17:46:55 10° N
Resurs 1-3 3.7 17:37:33 10° SE 17:41:41 49° ENE 17:45:51 10° N
Cosmos 1503 Rocket 3.9 17:37:04 10° SSW 17:42:19 89° WNW 17:46:10 19° NNE
BREEZE-M DEB (TANK) 3.7 17:39:37 10° W 17:42:56 81° S 17:48:33 22° ESE
Meteor 2-20 4.5 17:41:36 10° SSE 17:47:33 55° E 17:53:32 10° NNE
Cosmos 1697 Rocket 2.6 17:42:13 10° SSW 17:47:46 68° ESE 17:50:44 28° NE
Okean 1-7 Rocket 4.1 17:44:53 10° NNW 17:49:12 58° W 17:53:29 10° S
Lacrosse 5 rocket 2.2 17:46:09 10° WNW 17:49:30 30° N 17:49:58 29° N
Cosmos 1354 Rocket 3.9 17:45:19 10° SSW 17:50:34 78° ESE 17:53:34 26° NNE
BREEZE-M DEB (TANK) 3.9 17:48:42 10° WNW 17:52:10 73° N 17:57:03 28° E
Cosmos 1461 2.6 17:49:32 10° SW 17:53:26 83° NW 17:54:18 53° NNE
NOSS 2-2 (E) 3.9 17:51:03 10° WSW 17:54:00 34° NW 17:54:24 32° NNW
Spot 4 Rocket 3.9 17:50:22 10° SSE 17:55:27 73° ENE 18:00:34 10° NNW
IRAS Rocket 4.1 17:51:15 10° SSE 17:56:40 66° ENE 18:02:06 10° NNW
Cosmos 1726 Rocket 3.5 17:52:29 10° S 17:57:07 80° E 17:59:49 25° NNE
Cosmos 1655 Rocket 3.9 17:54:01 10° N 18:00:19 89° E 18:06:32 10° S
SKYMED 2 3.4 17:59:35 38° NNE 18:01:12 78° ESE 18:05:32 10° S
Gbstr 26 Del rocket 3.2 17:59:03 10° SW 18:02:38 44° SSE 18:02:38 44° SSE
Meteor 2-10 3.9 18:02:13 10° N 18:07:33 72° ENE 18:13:03 10° SSE
CENTAUR R/B 3.8 18:02:50 10° W 18:08:37 35° NNW 18:12:28 22° NNE
Meteor 2-20 Rocket 4.4 18:03:34 10° S 18:09:41 57° E 18:12:30 31° NNE
YAOGAN 1 2.4 18:06:05 10° SSE 18:10:20 86° WSW 18:14:39 10° NNW
USA 281 4.3 18:17:16 25° NNE 18:17:16 25° NNE 18:21:30 10° NNW
Cosmos 2082 3.7 18:11:04 10° NNW 18:16:43 57° NE 18:17:04 56° ENE
Meteor 1-26 Rocket 4.2 18:13:22 10° S 18:18:03 53° ESE 18:18:03 53° ESE
USA 238 DEB 3.6 18:13:21 10° SSW 18:19:14 53° ESE 18:19:57 50° E
USA 238 3.6 18:13:28 10° SSW 18:19:21 52° ESE 18:20:02 50° E
Resurs 01 Rocket 4.1 18:25:01 11° N 18:25:01 11° N 18:25:15 10° N
Cosmos 1953 Rocket 4.1 18:19:09 10° NNW 18:23:32 60° W 18:27:54 10° S
USA 215 3.4 18:22:49 48° ENE 18:24:22 59° NNE 18:30:47 10° WNW
Cosmos 372 Rocket 4.3 18:22:25 10° S 18:26:26 50° SSE 18:26:26 50° SSE
Aureole 1 Rocket 3.8 18:24:13 10° SSW 18:27:16 46° S 18:27:16 46° S
CZ-4C R/B 4.2 18:28:56 10° NW 18:35:35 41° WSW 18:43:31 10° S
USA 81 4.4 18:31:53 10° NNW 18:37:07 65° W 18:42:18 10° S
NOAA 6 4.2 18:35:39 10° S 18:40:44 69° WSW 18:45:51 10° NNW
Cosmos 2219 3.1 18:35:01 10° NNW 18:40:47 85° WSW 18:41:35 67° SSE
Cosmos 1980 Rocket 2.2 18:44:38 10° SSW 18:49:48 75° SSW 18:49:48 75° SSW
Cosmos 2058 Rocket 4.4 18:49:11 10° SSW 18:51:55 35° SW 18:51:55 35° SW
Cosmos 1844 Rocket 4.1 18:49:57 10° NNW 18:52:38 27° N 18:52:38 27° N
Cosmos 2263 Rocket 3.2 18:56:25 10° NW 19:01:46 43° WSW 19:04:58 22° SSW
Cosmos 1553 Rocket 4.0 19:00:36 10° SSW 19:06:44 75° W 19:06:49 75° WNW
NOSS 3-2 (C) 4.2 19:05:09 10° W 19:10:14 40° NNW 19:10:27 40° NNW
Cosmos 2227 Rocket 4.5 19:10:01 10° NW 19:14:10 21° W 19:18:18 10° SSW
Cosmos 1697 Rocket 4.3 19:27:25 10° WSW 19:32:13 28° NW 19:32:29 28° NW
CENTAUR R/B 4.3 19:55:06 10° NW 19:59:34 28° NNW 19:59:34 28° NNW
USA 215 4.5 20:10:10 37° WNW 20:10:10 37° WNW 20:13:53 10° WNW
